STARLINK-11177, 60118

Orbit data source: Space-Track

STARLINK-11177, 60118 is a payload satellite owned by SpaceX/Seattle (US) in LEO that was launched on Mon, 24 Jun 2024 UTC via an FALCON 9 launch vehicle from the Air Force Western Test Range (AFWTR). Payload-class satellites include a variety of spacecraft equipped with specific instruments for various scientific and technological missions. These include communications satellites like Starlink; space stations such as the ISS; scientific satellites like the Hubble; Earth observation satellites from companies like Planet Labs, Umbra, and HawkEye 360; GPS; miniature CubeSats for education and research; and military/defense satellites.

Loading next visibility...
Identifier
60118, 2024-118F
Orbit
LEO
Country
Flag of USUS
Related business
Manufacturer
SpaceX/Seattle
Mission
Operational Commercial Communications
Bus & Motor
STARLINK V2MD, Unknown motor
Mass
960 kg wet, ~910 kg dry
Launch date (UTC)
2024-06-24 (1 year ago)
Launch vehicle
FALCON 9
Launch site
Air Force Western Test Range (AFWTR)
Object type
Payload
Rocket body
Debris
Shape & HBR
Box + 2 Pan, 18.1 m
Radar Cross Section
36.964 m², Large (>1 m²)

Expand to show TLE details & history
Last TLE update: 2 days ago

TLE from 2 days ago
0 STARLINK-11177
1 60118U 24118F   25302.98140015 -.00001770  00000-0 -97587-5 0  9990
2 60118  53.1575 145.6411 0000897  74.2295 285.8822 15.69703477 77467
Epoch: 2025-10-29T23:33Z
TLE epoch observation values (Epoch: 2025-10-29T23:33:12.972Z)
Latitude
-0.00003°
Longitude
113.79029°
Altitude
360.495 km
Speed
7.694 km/s
True Right ascension
09h 42m 33s
True Declination
0° 00' 00"
Sunlit
Object was in daylight at epoch
Visualization orbit readout
Latitude
Unknown
Longitude
Unknown
Altitude
Unknown
Speed
Unknown
Apparent Right ascension
Unknown
Apparent Declination
Unknown
Sunlit
N/A
Visualization observer readout
Local Sidereal Time
08:08:05
Azimuth
Unknown
Elevation
Unknown
Doppler factor
Unknown
Orbital elements
Apogee altitude
360.611 km
Perigee altitude
359.402 km
Semi-major axis
6,738.144 km
Eccentricity
0.00009
Inclination
53.1575°
RAAN
145.6411°
Arg. of periapsis
74.2295°
True anomaly
285.87231°
Mean anomaly
285.8822°
Eccentric anomaly
285.87726°
Mean motion
3.92403 °/min
Orbital period
91.74 mins
BSTAR
-0.0000097587
Loading maneuver chart data...
Computing Atmospheric mass density...
Loading historical data...
Loading historical data...
Loading historical data...
Loading historical data...
Loading historical data...
Loading historical data...
Loading historical data...

Documentation

Showing up to 5 results
|